Regional Weather Roundup
Issued by NWS

Home | Current Version | Previous Version | Text Only | Print | Product List | Glossary Off
Versions: 1 2 3 4 5 6 7 8 9 10 11 12 13 14 15 16 17 18 19 20 21 22 23 24 25 26 27 28 29 30 31 32 33 34 35 36 37 38 39 40 41 42 43 44 45 46 47 48 49 50

000
ASUS43 KOAX 241410
RWRNE

WEATHER ROUNDUP FOR NEBRASKA
NATIONAL WEATHER SERVICE OMAHA NE
800 AM CST MON NOV 24 2014

NOTES: SATELLITE DATA IS BEING USED TO AUGMENT CLOUD COVER ABOVE
       12000 FEET.
       "FAIR" INDICATES FEW OR NO CLOUDS BELOW 12,000 FEET WITH NO
       SIGNIFICANT WEATHER AND/OR OBSTRUCTIONS TO VISIBILITY.

  * THESE STATIONS DO NOT REPORT WEATHER SUCH AS RAIN...SNOW OR FOG.

NEZ001>004-019>022-054>056-241500-
NEBRASKA PANHANDLE

CITY           SKY/WX    TMP DP  RH WIND       PRES   REMARKS
SCOTTSBLUFF    CLOUDY    30  18  60 W10       29.85R WCI  21
ALLIANCE       PTCLDY    23  15  71 NW13      29.80R WCI  11
CHADRON        CLOUDY    31  20  63 W14       29.82R WCI  21
KIMBALL        PTCLDY    30  16  56 W17G23    29.81R WCI  18
SIDNEY         CLEAR     25  15  66 NW12      29.82R WCI  14
$$

NEZ057>060-069>072-079>082-241500-
SOUTHWEST NEBRASKA

CITY           SKY/WX    TMP DP  RH WIND       PRES   REMARKS
NORTH PLATTE   CLEAR     22  16  78 NW9       29.79R WCI  12
IMPERIAL       CLEAR     28  14  55 W14       29.81R WCI  17
LEXINGTON      PTCLDY    26  20  78 NW13      29.78R WCI  15
MCCOOK         CLEAR     30  14  51 W16G23    29.81R WCI  19
OGALLALA       CLEAR     31  16  55 NW13G18   29.81R WCI  21
$$

NEZ005>010-023>029-035>040-094-241500-
NORTH CENTRAL NEBRASKA

CITY           SKY/WX    TMP DP  RH WIND       PRES   REMARKS
VALENTINE      CLEAR     20  15  81 NW13      29.79R WCI   7
AINSWORTH      CLEAR     21  15  79 NW20      29.77R WCI   6
BROKEN BOW     CLEAR     25  17  72 NW18G26   29.75R WCI  11
O`NEILL        CLOUDY    24  19  80 NW24G35   29.73R WCI   9
ORD            CLEAR     23  16  74 NW20G31   29.73R WCI   8
THEDFORD       CLEAR     25  20  82 NW16      29.78R WCI  12
$$

NEZ041-046>049-061>064-073>077-083>087-241500-
SOUTH CENTRAL NEBRASKA

CITY           SKY/WX    TMP DP  RH WIND       PRES   REMARKS
AURORA         CLOUDY    29  19  67 NW20G33   29.72R WCI  16
HASTINGS       PTCLDY    26  18  71 NW23G30   29.75R WCI  11
HEBRON         PTCLDY    28  18  66 NW22G30   29.74R WCI  15
HOLDREGE       CLEAR     30  20  67 NW16      29.77R WCI  18
KEARNEY *      CLEAR     27  18  69 W18       29.77R WCI  13
YORK           CLOUDY    28  19  69 NW20G26   29.71R WCI  15
$$

NEZ011>018-030>034-042>045-241500-
NORTHEAST NEBRASKA

CITY           SKY/WX    TMP DP  RH WIND       PRES   REMARKS
NORFOLK        CLOUDY    28  19  69 NW15      29.66R WCI  16
ALBION         CLOUDY    28  18  64 NW17G25   29.69R WCI  16
BLAIR          CLOUDY    28  19  69 NW21G30   29.63R WCI  14
COLUMBUS *     CLOUDY    28  18  64 NW24G30   29.69R WCI  14
FREMONT        CLOUDY    29  20  69 NW17      29.67R WCI  17
TEKAMAH        CLOUDY    27  16  63 NW25G33   29.66R WCI  12
WAYNE          CLOUDY    25  18  74 NW21G26   29.66R WCI  11
$$

NEZ050>053-065>068-078-088>093-241500-
SOUTHEAST NEBRASKA

CITY           SKY/WX    TMP DP  RH WIND       PRES   REMARKS
LINCOLN        CLOUDY    31  19  61 NW20G25   29.70R WCI  19
OMAHA EPPLEY   CLOUDY    28  18  66 NW25G32   29.66R WCI  13
BEATRICE       CLOUDY    31  21  67 NW18      29.69R WCI  19
FALLS CITY     CLOUDY    32  23  69 NW8       29.66R WCI  25
NEBRASKA CITY  CLOUDY    30  20  64 NW16      29.66R WCI  19
PLATTSMOUTH    CLOUDY    29  19  65 NW21G35   29.65R WCI  16
$$

NEZ044-045-051>053-067-241500-
OMAHA AREA

CITY           SKY/WX    TMP DP  RH WIND       PRES   REMARKS
OMAHA EPPLEY   CLOUDY    28  18  66 NW25G32   29.66R WCI  13
BLAIR          CLOUDY    28  19  69 NW21G30   29.63R WCI  14
FREMONT        CLOUDY    29  20  69 NW17      29.67R WCI  17
MILLARD        CLOUDY    30  19  65 NW15G22   29.66R WCI  19
OFFUTT AFB     CLOUDY    29  18  64 NW22G38   29.65R WCI  16
PLATTSMOUTH    CLOUDY    29  19  65 NW21G35   29.65R WCI  16
WAHOO          CLOUDY    29  19  66 NW15      29.67R WCI  18
$$


USA.gov is the U.S. government's official web portal to all federal, state and local government web resources and services.